Regional Weather Roundup
Issued by NWS Sterling, VA

Home | Current Version | Previous Version | Graphics & Text | Print | Product List | Glossary On
Versions: 1 2 3 4 5 6 7 8 9 10 11 12 13 14 15 16 17 18 19 20 21 22 23 24 25 26 27 28 29 30 31 32 33 34 35 36 37 38 39 40 41 42 43 44 45 46 47 48 49 50
000
ASUS41 KLWX 230410
RWRLWX

REGIONAL WEATHER ROUNDUP
NATIONAL WEATHER SERVICE BALTIMORE MD/WASHINGTON DC
1200 AM EDT SAT MAY 23 2015

Note: "FAIR" indicates few or no clouds below 12,000 feet
with no significant weather and/or obstructions to visibility.
 TC=TEMPERATURE CELSIUS

 * =Non NWS site. Station does not report precipitation (e.g. rain,
    snow, etc.), thunder, or fog.

DCZ001-MDZ009-015-VAZ040>042-051-053>054-230500-
WASHINGTON METRO

CITY           SKY/WX    TMP DP  RH WIND       PRES   REMARKS
WASHINGTON NAT PTCLDY    67  45  45 W7        30.24R
DULLES         PTCLDY    63  40  42 N13G18    30.25R
ANDREWS AFB    CLEAR     64  45  48 W8        30.22R
FT BELVOIR     CLEAR     65  46  50 W6        30.23R
QUANTICO       PTCLDY    62  47  57 NW5       30.25R
COLLEGE PARK*  CLEAR     63  45  51 CALM      30.24R
LEESBURG*      PTCLDY    63  37  39 N10       30.27R
MANASSAS*      PTCLDY    63  48  59 NW7       30.25R
GAITHERSBURG*  CLEAR     57  39  51 NW8       30.29R

$$

MDZ006>007-011-014-230500-
BALTIMORE METRO

CITY           SKY/WX    TMP DP  RH WIND       PRES   REMARKS
BWI AIRPORT    PTCLDY    59  36  42 NW6       30.23R
MD SCIENCE CTR   N/A     65  32  29 MISG      30.23R
MARTIN STATE   CLEAR     57  36  44 W13       30.24R
ANNAPOLIS      CLEAR     66  41  40 NW12      30.22R
FORT MEADE*    CLEAR     57  41  54 NW8       30.26R

$$

MDZ012-015-019>023-230500-
MARYLAND EASTERN SHORE

CITY           SKY/WX    TMP DP  RH WIND       PRES   REMARKS
OCEAN CITY     CLEAR     62  50  64 W9        30.19R
SALISBURY      CLEAR     56  51  84 W3        30.20R
BAY BRIDGE AP*   N/A    N/A N/A N/A NW14      30.22R
CAMBRIDGE*     FAIR      61  48  63 CALM      30.22R
EASTON*        FAIR      64  50  59 NW7       30.26R

$$

MDZ017>025-230500-
SOUTHERN MARYLAND

CITY           SKY/WX    TMP DP  RH WIND       PRES   REMARKS
PATUXENT RIVER CLEAR     60  50  69 W7        30.22R
ST INIGOES     CLEAR     64  51  62 W6        30.22R
LEONARDTOWN*   PTCLDY    59  46  63 CALM      30.25R

$$

MDZ003>005-230500-
NORTH CENTRAL MARYLAND

CITY           SKY/WX    TMP DP  RH WIND       PRES   REMARKS
FREDERICK*     CLEAR     57  32  38 NW5       30.29R
HAGERSTOWN APT CLEAR     57  28  33 NW9G18    30.28R
WESTMINSTER*   CLEAR     57  25  28 NW8       30.25R

$$

MDZ501>502-230500-
WESTERN MARYLAND

CITY           SKY/WX    TMP DP  RH WIND       PRES   REMARKS
OAKLAND*       CLEAR     43  32  65 N5        30.31S
CUMBERLAND*    CLEAR     55  30  38 N10G16    30.35R

$$

VAZ025>031-230500-
SHENANDOAH VALLEY

CITY           SKY/WX    TMP DP  RH WIND       PRES   REMARKS
WINCHESTER*    CLEAR     61  32  33 NW6       30.27R
FRONT ROYAL*   FAIR      61  46  59 N6        30.26R
LURAY*         MOCLDY    61  48  63 CALM      30.26R
NEW MARKET*    MOCLDY    55  49  80 CALM      30.26R
STAUNTON*      MOCLDY    58  43  56 CALM      30.29R
WAYNESBORO*    FAIR      55  42  60 SW5       30.28R

$$

WVZ021-048>050-054>055-230500-
EASTERN WEST VIRGINIA PANHANDLE

CITY           SKY/WX    TMP DP  RH WIND       PRES   REMARKS
MARTINSBURG    CLEAR     59  28  30 N9        30.28R
PETERSBURG*    PTCLDY    57  45  65 N5        30.31R

$$

VAZ036>039-050-230500-
CENTRAL FOOTHILLS

CITY           SKY/WX    TMP DP  RH WIND       PRES   REMARKS
CHARLOTTESVILL PTCLDY    58  45  62 CALM      30.25R
CULPEPER*      PTCLDY    52  47  83 NW3       30.26R
ORANGE*        PTCLDY    55  50  82 CALM      30.26R
GORDONSVILLE*  FAIR      55  47  74 NW5       30.24R
WARRENTON*     FAIR      61  49  65 NW5       30.25R

$$

VAZ055>057-230500-
NORTH AND CENTRAL PIEDMONT

CITY           SKY/WX    TMP DP  RH WIND       PRES   REMARKS
FREDERICKSBRG* MOCLDY    60  53  77 CALM      30.23R
STAFFORD*      MOCLDY    53  50  90 CALM      30.28R

$$

NCZ024-NYZ072-PAZ021-071-VAZ022-071-230500-
OTHER REGIONAL OBSERVATIONS

CITY           SKY/WX    TMP DP  RH WIND       PRES   REMARKS
NEW YORK CITY  CLEAR     61  31  32 VRB5      30.18R
PHILADELPHIA   CLEAR     66  21  18 NW12      30.18R
PITTSBURGH     PTCLDY    48  29  47 CALM      30.33R
ROANOKE        PTCLDY    57  42  57 VRB3      30.31S
RICHMOND       PTCLDY    58  48  69 CALM      30.24R
RALEIGH        PTCLDY    55  47  74 CALM      30.28S

$$

ANZ530>537-230500-
MARINE OBSERVATIONS

STATION/POSITION TIME  TEMP    WIND        PRES
                       AIR SEA DIR/SP/G
                 (UTC) (F)     (DEG/KT/KT) (MB)
THOMAS PT LIGHT  0400   66 65  340/ 14/ 17 1023.5R
BALT KEY BRIDGE  0300   68     290/ 14/ 17 1022.1R
LEWISETTA        0300   65 69              1022.7R
SOLOMONS ISLAND  0300      68                N/A
PINEY POINT      0318          300/  9/ 10   N/A

$$



USA.gov is the U.S. government's official web portal to all federal, state and local government web resources and services.